Location: Unspecified
(0.0000°N, 0.0000°E)
Time: 09:43:27
(UTC+01:00)

NOAA 12 - Visible Passes

Search period start: 19 January 2017 00:00
Search period end: 29 January 2017 00:00
Orbit: 796 x 815 km, 98.6° (Epoch: 18 January)

Date Brightness Start Highest point End Pass type
(mag) Time Alt. Az. Time Alt. Az. Time Alt. Az.
19 Jan 4.6 20:19:49 10° S 20:24:58 61° WSW 20:30:07 10° NNW visible
20 Jan 4.0 19:54:52 10° SSE 20:00:03 67° ENE 20:05:14 10° N visible
21 Jan 4.7 19:30:30 10° SE 19:35:09 33° ENE 19:39:47 10° NNE visible
21 Jan 7.0 21:11:45 10° SW 21:14:40 15° WSW 21:17:35 10° WNW visible
22 Jan 6.0 20:45:15 10° SSW 20:49:46 30° WSW 20:54:18 10° NW visible
23 Jan 4.6 20:19:43 10° S 20:24:52 61° WSW 20:30:01 10° NNW visible
24 Jan 4.0 19:54:46 10° SSE 19:59:58 67° ENE 20:05:08 10° N visible
25 Jan 4.7 19:30:24 10° SE 19:35:03 33° ENE 19:39:42 10° NNE visible
25 Jan 7.0 21:11:39 10° SW 21:14:34 15° WSW 21:17:29 10° WNW visible
26 Jan 6.0 20:45:09 10° SSW 20:49:41 30° WSW 20:54:12 10° NW visible
27 Jan 4.6 20:19:37 10° S 20:24:46 61° WSW 20:29:55 10° NNW visible
28 Jan 4.0 19:54:40 10° SSE 19:59:52 67° ENE 20:05:03 10° N visible
